| time (UTC) | temp F | wind direction | speed MPH | gust MPH | rain 1hr in | rain 24hr in | rain mn in | humidity % | barometer mb |
| 20260506223530 | 48 | 182 | 1.0 | 2.0 | 0.00 | 0.22 | 0.00 | 94 | 1009.2 |
| 20260506222530 | 48 | 186 | 1.0 | 2.0 | 0.00 | 0.22 | 0.00 | 95 | 1009.2 |
| 20260506221530 | 49 | 180 | 1.0 | 2.0 | 0.00 | 0.22 | 0.00 | 95 | 1009.2 |
| 20260506220530 | 48 | 162 | 0.0 | 2.0 | 0.00 | 0.22 | 0.00 | 95 | 1009.3 |
| 20260506215530 | 49 | 162 | 0.0 | 2.0 | 0.00 | 0.22 | 0.22 | 95 | 1009.3 |
| 20260506214530 | 49 | 162 | 0.0 | 2.0 | 0.00 | 0.22 | 0.22 | 94 | 1009.2 |
| 20260506213530 | 50 | 0.0 | 0.0 | 0.00 | 0.22 | 0.22 | 93 | 1009.2 | |
| 20260506212532 | 50 | 157 | 1.0 | 2.0 | 0.00 | 0.22 | 0.22 | 92 | 1009.3 |
| 20260506211530 | 50 | 180 | 2.0 | 3.0 | 0.00 | 0.22 | 0.22 | 93 | 1009.2 |
| 20260506210530 | 50 | 228 | 1.0 | 2.0 | 0.00 | 0.22 | 0.22 | 92 | 1009.3 |
| 20260506205530 | 50 | 228 | 1.0 | 3.0 | 0.00 | 0.22 | 0.22 | 93 | 1009.1 |
| 20260506204530 | 50 | 0.0 | 0.0 | 0.00 | 0.22 | 0.22 | 93 | 1009.1 | |
| 20260506203530 | 49 | 228 | 0.0 | 2.0 | 0.00 | 0.22 | 0.22 | 93 | 1008.9 |
| 20260506202550 | 49 | 210 | 1.0 | 2.0 | 0.00 | 0.22 | 0.22 | 95 | 1008.8 |
| 20260506201530 | 49 | 0.0 | 0.0 | 0.00 | 0.24 | 0.22 | 95 | 1008.5 | |
| 20260506200530 | 49 | 150 | 1.0 | 2.0 | 0.00 | 0.24 | 0.22 | 94 | 1008.5 |
| 20260506195530 | 50 | 155 | 1.0 | 2.0 | 0.00 | 0.24 | 0.22 | 92 | 1008.4 |
| 20260506194530 | 50 | 186 | 1.0 | 4.0 | 0.00 | 0.24 | 0.22 | 92 | 1008.4 |
| 20260506193530 | 50 | 154 | 1.0 | 2.0 | 0.00 | 0.24 | 0.22 | 91 | 1008.2 |
| 20260506192531 | 51 | 180 | 1.0 | 2.0 | 0.00 | 0.24 | 0.22 | 91 | 1008.2 |
| 20260506191550 | 51 | 152 | 1.0 | 3.0 | 0.00 | 0.24 | 0.22 | 91 | 1008.1 |
| 20260506190538 | 51 | 161 | 2.0 | 3.0 | 0.00 | 0.24 | 0.22 | 91 | 1008.0 |
| 20260506185518 | 51 | 164 | 2.0 | 3.0 | 0.00 | 0.24 | 0.22 | 91 | 1008.0 |
| 20260506184518 | 52 | 203 | 1.0 | 3.0 | 0.00 | 0.24 | 0.22 | 91 | 1007.9 |
| 20260506183519 | 52 | 221 | 1.0 | 4.0 | 0.00 | 0.24 | 0.22 | 91 | 1007.7 |
| 20260506182530 | 52 | 204 | 1.0 | 2.0 | 0.00 | 0.24 | 0.22 | 91 | 1007.6 |
| 20260506181529 | 52 | 205 | 1.0 | 2.0 | 0.00 | 0.24 | 0.22 | 91 | 1007.5 |
| 20260506180530 | 53 | 198 | 0.0 | 2.0 | 0.00 | 0.24 | 0.22 | 92 | 1007.5 |
| 20260506175530 | 53 | 198 | 0.0 | 2.0 | 0.00 | 0.24 | 0.22 | 92 | 1007.4 |
| 20260506174530 | 53 | 198 | 1.0 | 2.0 | 0.00 | 0.24 | 0.22 | 92 | 1007.3 |
| 20260506173549 | 53 | 205 | 1.0 | 2.0 | 0.00 | 0.24 | 0.22 | 89 | 1007.3 |
| 20260506172529 | 53 | 284 | 1.0 | 2.0 | 0.00 | 0.24 | 0.22 | 87 | 1007.0 |
| 20260506171529 | 53 | 318 | 1.0 | 4.0 | 0.00 | 0.24 | 0.22 | 89 | 1006.9 |
| 20260506170530 | 53 | 253 | 1.0 | 2.0 | 0.00 | 0.24 | 0.22 | 89 | 1006.9 |